Regional Weather Roundup
Issued by NWS

Home | Current Version | Previous Version | Text Only | Print | Product List | Glossary Off
Versions: 1 2 3 4 5 6 7 8 9 10 11 12 13 14 15 16 17 18 19 20 21 22 23 24 25 26 27 28 29 30 31 32 33 34 35 36 37 38 39 40 41 42 43 44 45 46 47 48 49 50

000
ASUS45 KPSR 300710
RWRAZ

ARIZONA REGIONAL HOURLY WEATHER ROUNDUP
NATIONAL WEATHER SERVICE PHOENIX AZ
1200 AM MST TUE SEP 30 2014

NOTE: FAIR INDICATES FEW OR NO CLOUDS BELOW 12,000 FEET WITH NO
SIGNIFICANT WEATHER AND/OR OBSTRUCTIONS TO VISIBILITY.

AZZ001>003-036-300800-
NORTHWEST ARIZONA

CITY           SKY/WX    TMP DP  RH WIND       PRES   REMARKS
BULLHEAD CITY  CLEAR     75  36  23 NE5       29.87R
KINGMAN        NOT AVBL
$$

AZZ004>008-015-016-018-300800-
NORTH CENTRAL ARIZONA

CITY           SKY/WX    TMP DP  RH WIND       PRES   REMARKS
GRAND CANYON   CLEAR     37  35  92 CALM      30.14S
PRESCOTT       CLEAR     51  38  60 S7        30.07S
FLAGSTAFF      CLEAR     39  33  79 CALM      30.15S
PAYSON         CLEAR     52  39  62 CALM      30.07F
$$

AZZ009>014-017-300800-
NORTHEAST ARIZONA

CITY           SKY/WX    TMP DP  RH WIND       PRES   REMARKS
WINSLOW        CLEAR     51  41  68 W3        30.05S
SAINT JOHNS    CLEAR     50  38  63 S5        30.07F
SHOW LOW       CLEAR     43  36  75 S3        30.14S
$$

AZZ023-300800-
GREATER PHOENIX AREA

CITY           SKY/WX    TMP DP  RH WIND       PRES   REMARKS
PHOENIX        CLEAR     74  48  39 S3        29.83F
BUCKEYE          N/A     66  48  52 SE3       29.85S
LUKE AFB       CLEAR     67  53  61 NW8       29.84S
DEER VALLEY    CLEAR     69  48  47 N6        29.85F
SCOTTSDALE     CLEAR     71  46  40 CALM      29.86F
MESA-GATEWAY   CLEAR     66  55  68 S5        29.88S
$$

AZZ027-028-300800-
SOUTHWEST MARICOPA COUNTY AND PINAL COUNTY

CITY           SKY/WX    TMP DP  RH WIND       PRES   REMARKS
CASA GRANDE    CLEAR     66  48  52 CALM      29.87F
$$

AZZ503-504-507>509-300800-
SOUTHEAST ARIZONA

CITY           SKY/WX    TMP DP  RH WIND       PRES   REMARKS
TUCSON         CLEAR     70  37  29 S6        29.94S
DAVIS-MONTHAN  CLEAR     64  44  46 S5        29.93S
NOGALES        CLEAR     59  51  75 E5        30.00F
SIERRA VISTA   PTCLDY    63  55  77 NW3       30.03F
DOUGLAS        CLEAR     62  54  74 N7        30.00F
SAFFORD        CLEAR     63  34  33 CALM      29.92S
$$

AZZ020-021-025-026-031-300800-
SOUTHWEST ARIZONA

CITY           SKY/WX    TMP DP  RH WIND       PRES   REMARKS
YUMA           CLEAR     75  44  33 NW3       29.81F
$$

CAZ031-033-041-043-047-048-061-300800-
SOUTHERN CALIFORNIA

CITY           SKY/WX    TMP DP  RH WIND       PRES   REMARKS
DOWNTOWN L.A.  CLEAR     68  61  78 CALM      29.87S
L.A. AIRPORT   CLEAR     67  63  87 SE5       29.88S
SAN DIEGO      CLEAR     69  60  73 CALM      29.90S
BURBANK        CLEAR     68  53  58 E6        29.88R
ONTARIO        CLEAR     68  54  60 CALM      29.89S
RIVERSIDE      CLEAR     67  56  67 CALM      29.90R
PALM SPRINGS   CLEAR     79  41  25 NW3       29.87S
EL CENTRO NAS  CLEAR     75  40  28 SW5       29.81R
IMPERIAL       CLEAR     71  46  40 CALM      29.80S
BLYTHE         CLEAR     73  44  35 NW5       29.83S
NEEDLES        CLEAR     77  37  23 SE3       29.86S
$$

NVZ020-UTZ003-300800-
SOUTHERN NEVADA-UTAH

CITY           SKY/WX    TMP DP  RH WIND       PRES   REMARKS
LAS VEGAS      CLEAR     71  39  31 S10       29.89S
SALT LAKE CITY CLOUDY    52  47  83 SE8       29.99F
$$

NMZ009-TXZ055-300800-
NEW MEXICO-WEST TEXAS

CITY           SKY/WX    TMP DP  RH WIND       PRES   REMARKS
ALBUQUERQUE    CLEAR     57  34  41 W9        30.05S
EL PASO        PTCLDY    73  57  57 S9        29.93F
$$


........................KEY........................
SKY/WX - SKY CONDITION/WEATHER
TMP    - TEMPERATURE IN FAHRENHEIT
DP     - DEW POINT IN FAHRENHEIT
RH     - RELATIVE HUMIDITY IN PERCENT
WIND   - DIRECTION AND SPEED IN MILES PER HOUR (MPH)
VRB    - VARIABLE WIND DIRECTION
PRES   - MEAN SEA LEVEL PRESSURE IN INCHES OF MERCURY
         F - FALLING PRESSURE   R - RISING PRESSURE
         S - STEADY PRESSURE
VSB    - VISIBILITY IN MILES
HX     - HEAT INDEX IN FAHRENHEIT
WCI    - WIND CHILL INDEX IN FAHRENHEIT
TC     - TEMPERATURE IN CELSIUS WHICH IS ALSO KNOWN AS
         TEMPERATURE IN CENTIGRADE
AFB    - AIR FORCE BASE
         LUKE AFB IS LUKE AIR FORCE BASE
         DAVIS-MONTHAN IS DAVIS-MONTHAN AIR FORCE BASE
NAS    - NAVAL AIR STATION
         EL CENTRO NAS IS EL CENTRO NAVAL AIR STATION
N/A    - NOT AVAILABLE



USA.gov is the U.S. government's official web portal to all federal, state and local government web resources and services.